Simultaneous Nadir Overpasses (SNOs) Predictions

Prediction of SNOs between GOES-15 and METOP-A Satellite Orbit:

Table of predicted SNOs for the next 14.0 days since TLE Epoch: 9/25/2020
Index Date Time (GOES-15) GOES-15 Lat,Lon METOP-A Lat,Lon Distance(km) Time Diff (sec)
1 09/26/2020 05:18:31 -0.05,-128.40 -0.66,-131.17 316.11 80
2 09/27/2020 04:55:12 -0.04,-128.41 0.43,-126.19 251.66 80
3 09/28/2020 17:16:44 0.05,-128.38 0.59,-130.79 274.61 80
4 09/29/2020 16:53:26 0.04,-128.39 -0.55,-125.82 293.38 80
5 10/01/2020 05:15:06 -0.05,-128.45 -0.51,-130.45 228.22 80
6 10/02/2020 04:51:48 -0.04,-128.45 0.64,-125.48 339.37 80
7 10/03/2020 17:13:19 0.06,-128.42 0.45,-130.06 187.62 80
8 10/04/2020 16:50:00 0.05,-128.43 -0.70,-125.09 379.95 80
9 10/06/2020 05:11:41 -0.07,-128.48 -0.36,-129.72 142.24 80
10 10/07/2020 04:48:21 -0.06,-128.47 0.73,-124.74 424.68 80
11 10/08/2020 17:09:53 0.08,-128.43 0.30,-129.34 103.80 80
12 10/09/2020 16:46:35 0.07,-128.43 -0.85,-124.37 462.89 80
